This demonstration page uses our WeatherBlox Daily Observations layout. Learn more.

Left ArrowRight Arrow

39.29038, -76.61219

Hourly Observations for September 15, 2021

Temp ( °F °C ) Dew Point ( °F °C ) Humidity (%) Winds ( mph kmh ) Pressure ( in mb ) Visibility ( mi km ) Precip ( " mm )
12:54 am 00:54 Clear 76 24.4 72 22.2 88 88 SW 5 7 29.97 1015 10 16 N/A
1:54 am 01:54 Clear 75 23.9 71 21.7 88 88 N N/A 29.96 1015 9 14 N/A
2:54 am 02:54 Clear 75 23.9 71 21.7 88 88 N N/A 29.95 1014 10 16 N/A
3:54 am 03:54 Mostly Clear 74 23.3 70 21.1 88 88 N N/A 29.94 1014 10 16 N/A
4:54 am 04:54 Mostly Clear 73 22.8 69 20.6 87 87 SSW 3 6 29.94 1014 10 16 N/A
5:54 am 05:54 Mostly Clear 73 22.8 68 20 84 84 SW 5 7 29.94 1014 10 16 N/A
6:54 am 06:54 Partly Cloudy 72 22.2 67 19.4 84 84 SW 5 7 29.94 1014 10 16 N/A
7:54 am 07:54 Mostly Cloudy 73 22.8 66 18.9 79 79 SW 6 9 29.96 1014 10 16 N/A
8:54 am 08:54 Mostly Cloudy 76 24.4 67 19.4 74 74 SW 6 9 29.96 1014 10 16 N/A
9:54 am 09:54 Partly Cloudy 80 26.7 67 19.4 64 64 SW 7 11 29.96 1015 10 16 N/A
10:54 am 10:54 Partly Cloudy 85 29.4 67 19.4 55 55 VRB 7 11 29.96 1015 10 16 N/A
11:54 am 11:54 Partly Cloudy 88 31.1 66 18.9 48 48 SSW 10 17 29.96 1015 10 16 N/A
12:54 pm 12:54 Mostly Cloudy 89 31.7 63 17.2 42 42 SSW 10 17 29.95 1014 10 16 N/A
1:54 pm 13:54 Mostly Cloudy 90 32.2 64 17.8 42 42 SW 14 22 29.93 1013 10 16 N/A
2:54 pm 14:54 Mostly Cloudy 90 32.2 65 18.3 44 44 SW 10 17 29.91 1013 10 16 N/A
3:54 pm 15:54 Mostly Cloudy 90 32.2 64 17.8 42 42 SW 13 20 29.90 1012 10 16 N/A
4:54 pm 16:54 Mostly Cloudy 88 31.1 66 18.9 48 48 SSW 10 17 29.90 1012 10 16 N/A
5:54 pm 17:54 Mostly Cloudy 87 30.6 65 18.3 48 48 S 8 13 29.91 1013 10 16 N/A
6:54 pm 18:54 Mostly Cloudy 84 28.9 67 19.4 57 57 SSE 7 11 29.92 1013 10 16 N/A
7:54 pm 19:54 Mostly Cloudy 81 27.2 71 21.7 72 72 SSE 5 7 29.95 1014 10 16 N/A
8:54 pm 20:54 Mostly Cloudy 79 26.1 72 22.2 79 79 VRB 5 7 29.98 1015 10 16 N/A
9:54 pm 21:54 Mostly Cloudy 79 26.1 68 20 69 69 NW 8 13 30.02 1017 10 16 N/A
10:54 pm 22:54 Mostly Cloudy 77 25 65 18.3 66 66 N 3 6 30.02 1017 10 16 N/A
11:54 pm 23:54 Cloudy 76 24.4 65 18.3 69 69 WNW 6 9 30.03 1017 10 16 N/A

Powered by AerisWeather